Location: Darlington Observatory
(36.4817°N, 105.8156°W)
Time: 06:07:33
(UTC-07:00)

NOSS 3-3 (A) - Visible Passes

Search period start: 27 February 2015 00:00
Search period end: 09 March 2015 01:00
Orbit: 964 x 1249 km, 63.4° (Epoch: 19 February)

Date Brightness Start Highest point End Pass type
(mag) Time Alt. Az. Time Alt. Az. Time Alt. Az.
27 Feb 6.5 02:37:14 16° NNE 02:37:14 16° NNE 02:38:23 10° NNE visible
27 Feb 5.9 04:24:41 17° NNW 04:24:41 17° NNW 04:28:04 10° N visible
28 Feb 5.9 03:41:26 19° N 03:41:26 19° N 03:44:00 10° NNE visible
01 Mar 6.3 02:58:09 17° NNE 02:58:09 17° NNE 02:59:43 10° NNE visible
02 Mar 6.7 02:14:50 12° NNE 02:14:50 12° NNE 02:15:17 10° NNE visible
02 Mar 6.2 04:02:17 13° NNW 04:02:17 13° NNW 04:04:26 10° N visible
03 Mar 6.3 03:18:56 15° N 03:18:56 15° N 03:20:37 10° N visible
04 Mar 6.5 02:35:35 13° N 02:35:35 13° N 02:36:28 10° NNE visible
05 Mar 6.4 03:39:37 11° NNW 03:39:37 11° NNW 03:40:24 10° NNW visible
06 Mar 6.5 02:56:13 12° N 02:56:13 12° N 02:57:06 10° N visible
07 Mar 6.7 02:12:47 11° N 02:12:47 11° N 02:13:07 10° N visible
